Home > Weather > Juneau > Past weeks

Flag for U.S.A. Weather for the Past 2 Weeks in Juneau, Alaska, U.S.A.

Now
45 °F

Cloudy.


Feels Like: 41 °F
Forecast: 39 / 44 °F
Wind: 8 mph from East

Location: Juneau International Airport

Current Time: Feb 11, 2016 at 2:36:15 PM

Latest Report: Feb 11, 2016 at 1:53 PM


Visibility: 10 mi

Pressure: 29.94 "Hg

Humidity: 82%

Dew point: 40 °F

Location of JuneauLocation

Historic Weather in Juneau — Graph

°F

Juneau Temperature Yesterday

Maximum temperature yesterday: 45 °F (at 11:53 PM)
Minimum temperature yesterday: 37 °F (at 4:53 AM)
Average temperature yesterday: 40 °F

High & Low Weather Summary for the Past Weeks

 TemperatureHumidityPressure
High47 °F (Feb 8, 8:53 PM)100% (Jan 31, 5:53 AM)30.25 "Hg (Jan 31, 5:53 AM)
Low24 °F (Jan 31, 11:53 PM)63% (Feb 7, 4:53 AM)29.16 "Hg (Jan 28, 12:53 AM)
Average37 °F89%29.78 "Hg
* Reported Jan 27 11:53 AM — Feb 11 11:53 AM, Juneau, Weather by CustomWeather, © 2016

Note: Actual official high and low records may vary slightly from our data, if they occured in-between our weather recording intervals... More about our weather records

Advertising

Juneau Weather History for the Previous 24 Hours

 ConditionsComfort  
Time TempWeatherWind HumidityBarometerVisibility
11:53 AM
Thu, Feb 11
47 °FCloudy.9 mph80%29.98 "Hg10 mi
10:53 AM45 °FMore clouds than sun.12 mph86%30.00 "Hg10 mi
9:53 AM44 °FLight rain. Mostly cloudy.20 mph85%30.01 "Hg7 mi
8:53 AM44 °FLight rain. Mostly cloudy.18 mph85%30.01 "Hg7 mi
7:53 AM43 °FLight rain. Mostly cloudy.21 mph89%30.00 "Hg10 mi
6:53 AM44 °FLight rain. Mostly cloudy.20 mph85%29.99 "Hg10 mi
5:53 AM44 °FPassing clouds.17 mph82%29.98 "Hg10 mi
4:53 AM44 °FLight rain. Mostly cloudy.15 mph85%29.98 "Hg8 mi
3:53 AM44 °FLight rain. Overcast.13 mph89%29.95 "Hg7 mi
2:53 AM43 °FLight rain. Mostly cloudy.20 mph93%29.93 "Hg8 mi
1:53 AM44 °FLight rain. Overcast.18 mph85%29.93 "Hg7 mi
12:53 AM46 °FPassing clouds.21 mph79%29.92 "Hg10 mi
11:53 PM
Wed, Feb 10
45 °FLight rain. Overcast.22 mph86%29.89 "Hg10 mi
10:53 PM44 °FLight rain. Overcast.17 mph89%29.87 "Hg10 mi
9:53 PM44 °FLight rain. Overcast.15 mph89%29.83 "Hg9 mi
8:53 PM43 °FOvercast.16 mph89%29.80 "Hg10 mi
7:53 PM41 °FLight rain. Overcast.21 mph89%29.77 "Hg10 mi
6:53 PM39 °FLight rain. Fog.No wind96%29.73 "Hg6 mi
5:53 PM39 °FLight rain. Fog.No wind93%29.71 "Hg6 mi
4:53 PM39 °FFog.No wind93%29.70 "Hg6 mi
3:53 PM40 °FMostly cloudy.5 mph89%29.70 "Hg10 mi
2:53 PM40 °FLow clouds.10 mph93%29.71 "Hg10 mi
Weather by CustomWeather, © 2016

See weather overviewHow to use our weather pages